Weather History for Thomasville, GA

Change the Weather History Date:

Monday, November 26, 2012

  Actual Average (KVLD) Record (KVLD)
Temperature  
Mean Temperature 50 °F 57 °F  
Max Temperature 68 °F 69 °F 82 °F (2001)
Min Temperature 32 °F 45 °F 28 °F (2008)
Degree Days  
Heating Degree Days 15 8  
Month to date heating degree days 151  
Since 1 July heating degree days 194  
Moisture  
Dew Point 33 °F    
Average Humidity 60    
Maximum Humidity 100    
Minimum Humidity 21    
Precipitation  
Precipitation 0.00 in 0.10 in 2.49 in (2013)
Month to date precipitation 2.14  
Year to date precipitation 47.01  
Sea Level Pressure  
Sea Level Pressure 30.20 in    
Wind  
Wind Speed 0 mph (ENE)    
Max Wind Speed 4 mph    
Max Gust Speed -    
Visibility 10 miles    
Events      
T = Trace of Precipitation, MM = Missing Value Source: NWS Daily Summary

Daily Weather History Graph

Daily Weather History Graph

Search for Another Location

Airport:

Trip Planner

Search our weather history database for the weather conditions in past years. The results will help you decide how hot, cold, wet, or windy it might be!

Date:

Astronomy

Nov. 26, 2012 Rise Set
Actual Time 7:12 AM EST 5:33 PM EST
Civil Twilight 6:45 AM EST 5:59 PM EST
Nautical Twilight 6:16 AM EST 6:29 PM EST
Astronomical Twilight 5:47 AM EST 6:58 PM EST
Moon 4:22 PM EST (11/26) 5:25 AM EST (11/26)
Length of Visible Light 11h 14m
Length of Day
10h 21m
Waxing Gibbous, 97% of the Moon is Illuminated
Nov 26
Waxing Gibbous
Nov 28
Full
Dec 6
Last Quarter
Dec 13
New
Dec 20
First Quarter

Hourly Weather History & Observations

Time (EST) Temp. Windchill Dew Point Humidity Pressure Visibility Wind Dir Wind Speed Gust Speed Precip Events Conditions
12:15 AM 33.8 °F - 30.2 °F 87% 30.18 in 10.0 mi Calm Calm - N/A   Clear
12:55 AM 33.8 °F - 30.2 °F 87% 30.17 in 10.0 mi Calm Calm - N/A   Clear
1:15 AM 33.8 °F - 30.2 °F 87% 30.17 in 10.0 mi Calm Calm - N/A   Clear
1:55 AM 33.8 °F - 30.2 °F 87% 30.17 in 10.0 mi Calm Calm - N/A   Clear
2:15 AM 33.8 °F - 30.2 °F 87% 30.17 in 10.0 mi Calm Calm - N/A   Clear
2:35 AM 33.8 °F - 30.2 °F 87% 30.17 in 10.0 mi Calm Calm - N/A   Clear
2:55 AM 32.0 °F - 30.2 °F 93% 30.17 in 10.0 mi Calm Calm - N/A   Clear
3:15 AM 32.0 °F - 30.2 °F 93% 30.17 in 10.0 mi Calm Calm - N/A   Clear
3:35 AM 32.0 °F - 30.2 °F 93% 30.18 in 10.0 mi Calm Calm - N/A   Clear
3:55 AM 32.0 °F - 30.2 °F 93% 30.18 in 10.0 mi Calm Calm - N/A   Clear
4:15 AM 32.0 °F - 30.2 °F 93% 30.18 in 10.0 mi Calm Calm - N/A   Clear
4:35 AM 32.0 °F - 32.0 °F 100% 30.17 in 10.0 mi Calm Calm - N/A   Clear
4:55 AM 32.0 °F - 32.0 °F 100% 30.18 in 10.0 mi Calm Calm - N/A   Clear
5:15 AM 32.0 °F - 30.2 °F 93% 30.19 in 10.0 mi Calm Calm - N/A   Clear
5:35 AM 32.0 °F - 30.2 °F 93% 30.19 in 10.0 mi Calm Calm - N/A   Clear
5:55 AM 32.0 °F - 30.2 °F 93% 30.20 in 10.0 mi Calm Calm - N/A   Clear
6:15 AM 32.0 °F 28.7 °F 30.2 °F 93% 30.21 in 10.0 mi North 3.5 mph - N/A   Clear
6:35 AM 32.0 °F - 30.2 °F 93% 30.22 in 10.0 mi Calm Calm - N/A   Clear
6:55 AM 32.0 °F - 30.2 °F 93% 30.23 in 10.0 mi Calm Calm - N/A   Clear
7:15 AM 32.0 °F - 32.0 °F 100% 30.24 in 10.0 mi Calm Calm - N/A   Clear
7:35 AM 32.0 °F - 32.0 °F 100% 30.23 in 10.0 mi Calm Calm - N/A   Clear
7:55 AM 32.0 °F - 32.0 °F 100% 30.24 in 10.0 mi Calm Calm - N/A   Clear
8:15 AM 35.6 °F - 32.0 °F 87% 30.25 in 10.0 mi Calm Calm - N/A   Clear
8:55 AM 44.6 °F - 37.4 °F 76% 30.26 in 10.0 mi Calm Calm - N/A   Clear
9:15 AM 48.2 °F - 35.6 °F 62% 30.26 in 10.0 mi Calm Calm - N/A   Clear
9:35 AM 51.8 °F - 33.8 °F 50% 30.26 in 10.0 mi Calm Calm - N/A   Clear
9:55 AM 55.4 °F - 33.8 °F 44% 30.27 in 10.0 mi Calm Calm - N/A   Clear
10:15 AM 59.0 °F - 33.8 °F 39% 30.27 in 10.0 mi Calm Calm - N/A   Clear
10:55 AM 60.8 °F - 28.4 °F 29% 30.27 in 10.0 mi Calm Calm - N/A   Clear
11:15 AM 62.6 °F - 30.2 °F 30% 30.27 in 10.0 mi Calm Calm - N/A   Clear
11:35 AM 62.6 °F - 30.2 °F 30% 30.26 in 10.0 mi Calm Calm - N/A   Clear
11:55 AM 62.6 °F - 28.4 °F 27% 30.25 in 10.0 mi Calm Calm - N/A   Clear
12:15 PM 64.4 °F - 28.4 °F 26% 30.24 in 10.0 mi SW 3.5 mph - N/A   Clear
12:35 PM 64.4 °F - 26.6 °F 24% 30.23 in 10.0 mi Calm Calm - N/A   Clear
12:55 PM 66.2 °F - 28.4 °F 24% 30.22 in 10.0 mi ESE 3.5 mph - N/A   Clear
1:15 PM 66.2 °F - 28.4 °F 24% 30.21 in 10.0 mi NE 3.5 mph - N/A   Clear
1:35 PM 66.2 °F - 28.4 °F 24% 30.20 in 10.0 mi NW 3.5 mph - N/A   Clear
1:55 PM 64.4 °F - 28.4 °F 26% 30.20 in 10.0 mi Calm Calm - N/A   Clear
2:15 PM 66.2 °F - 26.6 °F 23% 30.19 in 10.0 mi Calm Calm - N/A   Clear
2:35 PM 66.2 °F - 28.4 °F 24% 30.18 in 10.0 mi Calm Calm - N/A   Clear
2:55 PM 68.0 °F - 28.4 °F 23% 30.18 in 10.0 mi Calm Calm - N/A   Clear
3:15 PM 68.0 °F - 28.4 °F 23% 30.18 in 10.0 mi Calm Calm - N/A   Clear
3:35 PM 68.0 °F - 26.6 °F 21% 30.17 in 10.0 mi Calm Calm - N/A   Clear
3:55 PM 66.2 °F - 28.4 °F 24% 30.17 in 10.0 mi East 3.5 mph - N/A   Clear
4:15 PM 66.2 °F - 28.4 °F 24% 30.18 in 10.0 mi ESE 3.5 mph - N/A   Clear
4:35 PM 64.4 °F - 30.2 °F 28% 30.18 in 10.0 mi ESE 3.5 mph - N/A   Clear
4:55 PM 64.4 °F - 30.2 °F 28% 30.18 in 10.0 mi Calm Calm - N/A   Clear
5:15 PM 62.6 °F - 32.0 °F 32% 30.18 in 10.0 mi Calm Calm - N/A   Clear
5:35 PM 60.8 °F - 32.0 °F 34% 30.19 in 10.0 mi Calm Calm - N/A   Clear
5:55 PM 59.0 °F - 33.8 °F 39% 30.19 in 10.0 mi Calm Calm - N/A   Clear
6:15 PM 57.2 °F - 41.0 °F 55% 30.19 in 10.0 mi Calm Calm - N/A   Clear
6:35 PM 55.4 °F - 39.2 °F 54% 30.19 in 10.0 mi Calm Calm - N/A   Clear
6:55 PM 55.4 °F - 33.8 °F 44% 30.19 in 10.0 mi Calm Calm - N/A   Clear
7:15 PM 55.4 °F - 41.0 °F 58% 30.20 in 10.0 mi Calm Calm - N/A   Clear
7:35 PM 53.6 °F - 37.4 °F 54% 30.20 in 10.0 mi Calm Calm - N/A   Clear
7:55 PM 53.6 °F - 41.0 °F 62% 30.19 in 10.0 mi Calm Calm - N/A   Clear
8:15 PM 53.6 °F - 41.0 °F 62% 30.20 in 10.0 mi Calm Calm - N/A   Clear
8:35 PM 53.6 °F - 35.6 °F 51% 30.20 in 10.0 mi Calm Calm - N/A   Clear
8:55 PM 53.6 °F - 41.0 °F 62% 30.20 in 10.0 mi Calm Calm - N/A   Clear
9:15 PM 51.8 °F - 39.2 °F 62% 30.21 in 10.0 mi Calm Calm - N/A   Clear
9:35 PM 51.8 °F - 39.2 °F 62% 30.21 in 10.0 mi Calm Calm - N/A   Clear
9:55 PM 51.8 °F - 41.0 °F 67% 30.21 in 10.0 mi Calm Calm - N/A   Clear
10:15 PM 51.8 °F - 41.0 °F 67% 30.21 in 10.0 mi Calm Calm - N/A   Clear
10:35 PM 51.8 °F - 41.0 °F 67% 30.21 in 10.0 mi Calm Calm - N/A   Clear
10:55 PM 51.8 °F - 41.0 °F 67% 30.21 in 10.0 mi Calm Calm - N/A   Clear
11:15 PM 50.0 °F - 42.8 °F 76% 30.21 in 10.0 mi Calm Calm - N/A   Scattered Clouds
11:35 PM 51.8 °F - 39.2 °F 62% 30.21 in 10.0 mi Calm Calm - N/A   Scattered Clouds
11:55 PM 50.0 °F - 41.0 °F 71% 30.20 in 10.0 mi Calm Calm - N/A   Clear